Location: �terpigny
(49.8910°N, 2.9249°E)
Time: 15:49:08
(UTC+00:00)

Cosmos 1825 Rocket - Pass Details

Date: 24 October 2021
Orbit: 603 x 631 km, 82.5° (Epoch: 28 November)

Event Time Altitude Azimuth Distance (km) Brightness Sun altitude
Rises 18:06:23 0° 357° (N) 2,878 7.0 -14.6°
Reaches altitude 10° 18:08:49 10° 7° (N) 1,966 6.1 -15.0°
Maximum altitude 18:12:44 32° 71° (ENE) 1,047 4.2 -15.6°
Enters shadow 18:13:47 28° 100° (E) 1,137 4.3 -15.8°
